Location: Palo Alto
(37.4420°N, 122.1420°W)
Time: 16:17:46
(UTC-08:00)

ISS - All Passes

Search period start: 24 February 2017 00:00
Search period end: 06 March 2017 00:00
Orbit: 399 x 408 km, 51.6° (Epoch: 25 February)

Date Brightness Start Highest point End Pass type
(mag) Time Alt. Az. Time Alt. Az. Time Alt. Az.
24 Feb - 07:20:10 10° S 07:22:52 23° SE 07:25:33 10° ENE daylight
24 Feb - 08:56:11 10° W 08:59:12 32° NNW 09:02:14 10° NNE daylight
24 Feb - 13:49:29 10° NNW 13:51:53 18° NNE 13:54:17 10° ENE daylight
24 Feb - 15:25:21 10° WNW 15:28:35 56° SW 15:31:47 10° SE daylight
25 Feb - 06:29:20 10° SSE 06:30:32 12° SE 06:31:46 10° ESE daylight
25 Feb - 08:03:21 10° WSW 08:06:37 61° NW 08:09:53 10° NE daylight
25 Feb - 09:42:09 10° NW 09:43:37 12° NNW 09:45:07 10° N daylight
25 Feb - 12:57:31 10° N 12:59:07 13° NNE 13:00:43 10° NE daylight
25 Feb - 14:32:49 10° NW 14:36:05 67° NE 14:39:20 10° ESE daylight
25 Feb - 16:11:35 10° WSW 16:12:07 10° SW 16:12:38 10° SW daylight
26 Feb - 07:10:51 10° SW 07:14:06 63° SE 07:17:22 10° NE daylight
26 Feb - 08:48:31 10° WNW 08:50:50 18° NNW 08:53:10 10° NNE daylight
26 Feb - 13:40:27 10° NW 13:43:30 34° NNE 13:46:32 10° ESE daylight
26 Feb - 15:17:15 10° W 15:19:48 21° SW 15:22:20 10° S daylight
27 Feb - 06:18:45 10° SSW 06:21:39 29° SE 06:24:34 10° ENE daylight
27 Feb - 07:55:13 10° W 07:58:06 27° NNW 08:00:59 10° NNE daylight
27 Feb - 12:48:12 10° NNW 12:50:48 21° NNE 12:53:23 10° E daylight
27 Feb - 14:24:15 10° WNW 14:27:23 43° SW 14:30:31 10° SSE daylight
28 Feb - 05:27:23 10° SSE 05:29:17 15° SE 05:31:12 10° E visible
28 Feb - 07:02:14 10° WSW 07:05:26 48° NW 07:08:39 10° NE daylight
28 Feb - 08:41:27 10° NW 08:42:33 11° NNW 08:43:38 10° N daylight
28 Feb - 11:56:06 10° NNW 11:58:01 14° NNE 11:59:54 10° ENE daylight
28 Feb - 13:31:35 10° NW 13:34:53 85° NE 13:38:10 10° SE daylight
01 Mar - 06:09:35 10° SW 06:12:51 81° SE 06:16:09 10° NE visible
01 Mar - 07:47:35 10° WNW 07:49:40 16° NNW 07:51:46 10° NNE daylight
01 Mar - 11:04:26 10° N 11:05:07 10° NNE 11:05:49 10° NNE daylight
01 Mar - 12:39:08 10° NW 12:42:17 42° NE 12:45:25 10° ESE daylight
01 Mar - 14:16:17 10° W 14:18:30 17° SW 14:20:42 10° S daylight
02 Mar - 05:17:17 10° SSW 05:20:21 37° SE 05:23:25 10° ENE visible
02 Mar - 06:54:10 10° W 06:56:53 23° NNW 06:59:36 10° NNE daylight
02 Mar - 11:46:49 10° NNW 11:49:35 24° NNE 11:52:20 10° E daylight
02 Mar - 13:23:04 10° WNW 13:26:05 34° SW 13:29:05 10° SSE daylight
03 Mar - 04:25:35 10° S 04:27:55 18° SE 04:30:16 10° E visible
03 Mar - 06:01:02 10° WSW 06:04:09 39° NW 06:07:18 10° NE visible
03 Mar - 07:40:52 10° NNW 07:41:21 10° NNW 07:41:50 10° N daylight
03 Mar - 10:54:37 10° NNW 10:56:47 16° NNE 10:58:56 10° ENE daylight
03 Mar - 12:30:17 10° NW 12:33:34 75° SW 12:36:50 10° SE daylight
04 Mar - 05:08:13 10° SW 05:11:30 80° NW 05:14:49 10° NE visible
04 Mar - 06:46:36 10° NW 06:48:25 14° NNW 06:50:15 10° NNE daylight
04 Mar - 10:02:41 10° N 10:03:53 12° NNE 10:05:05 10° NE daylight
04 Mar - 11:37:44 10° NW 11:40:58 52° NE 11:44:10 10° ESE daylight
04 Mar - 13:15:22 10° W 13:17:04 14° SW 13:18:47 10° SSW daylight
05 Mar - 04:15:47 10° SSW 04:18:56 47° SE 04:22:07 10° ENE visible
05 Mar - 05:53:01 10° WNW 05:55:33 20° NNW 05:58:07 10° NNE visible
05 Mar - 10:45:19 10° NNW 10:48:14 28° NNE 10:51:09 10° E daylight
05 Mar - 12:21:49 10° WNW 12:24:39 27° SW 12:27:28 10° SSE daylight
